EST,Max TemperatureF,Mean TemperatureF,Min TemperatureF,Max Dew PointF,MeanDew PointF,Min DewpointF,Max Humidity, Mean Humidity, Min Humidity, Max Sea Level PressureIn, Mean Sea Level PressureIn, Min Sea Level PressureIn, Max VisibilityMiles, Mean VisibilityMiles, Min VisibilityMiles, Max Wind SpeedMPH, Mean Wind SpeedMPH, Max Gust SpeedMPH,PrecipitationIn, CloudCover, Events, WindDirDegrees
2013-1-1,27,20,12,19,12,5,74,66,50,30.18,30.11,30.03,10,10,10,14,6,,0.00,5,,330
2013-1-2,24,16,7,17,11,5,92,80,71,30.25,30.19,30.10,10,10,9,10,6,,0.00,5,,246
2013-1-3,28,18,9,23,14,2,85,75,68,30.22,30.17,30.12,10,9,4,12,7,,0.00,6,,255
2013-1-4,27,22,18,21,18,13,81,75,65,30.24,30.18,30.12,10,10,8,16,10,24,0.00,3,,260
2013-1-5,32,24,15,30,23,14,96,88,72,30.32,30.18,30.06,10,5,1,13,8,21,0.00,5,Snow,235
2013-1-6,35,32,30,30,28,24,89,82,70,30.32,30.05,29.94,10,7,4,16,11,22,0.00,8,Rain,264
2013-1-7,32,29,26,25,22,21,86,76,67,30.43,30.33,30.21,10,8,4,17,7,26,0.00,3,,243
2013-1-8,34,26,19,26,21,17,93,84,73,30.30,30.25,30.21,7,5,2,10,6,,0.00,0,,226
2013-1-9,45,36,26,32,26,22,92,66,42,30.49,30.25,30.12,10,9,4,17,9,30,0.00,1,Rain,268
2013-1-10,39,31,23,33,27,20,92,81,67,30.60,30.46,30.19,10,9,2,10,5,,0.16,2,Rain,121
2013-1-11,55,45,35,52,41,33,100,92,72,30.15,29.90,29.80,10,6,0,16,9,23,0.37,6,Fog-Rain,179
2013-1-12,59,52,44,51,46,41,100,91,75,29.96,29.90,29.78,10,6,0,13,7,,0.00,2,Fog-Rain,215
2013-1-13,50,40,30,49,36,23,100,92,75,30.10,29.89,29.74,10,7,2,20,10,31,0.67,8,Rain,343
2013-1-14,28,24,19,23,17,14,88,77,65,30.47,30.37,30.12,10,10,9,16,10,22,0.00,6,,312
2013-1-15,28,22,15,18,16,11,88,77,61,30.48,30.38,30.17,10,10,6,6,2,,0.00,0,,115
2013-1-16,37,29,21,25,20,17,89,70,46,30.15,29.99,29.88,10,10,9,17,5,25,0.00,4,,273
2013-1-17,37,28,19,27,20,7,85,65,46,30.36,30.19,30.03,10,10,7,18,9,24,0.00,3,,311
2013-1-18,33,26,19,22,17,12,75,65,56,30.47,30.31,30.04,10,10,10,21,9,31,0.00,4,,230
2013-1-19,48,41,34,33,28,23,73,61,48,30.02,29.90,29.68,10,10,10,23,14,33,0.00,0,,240
2013-1-20,42,30,18,31,10,6,74,60,50,30.23,30.09,29.66,10,9,2,24,17,40,0.00,7,Snow,306
2013-1-21,18,13,8,10,5,-3,80,70,45,30.17,30.07,29.98,10,6,1,21,11,37,0.00,7,Snow,294
2013-1-22,10,4,-2,3,-2,-11,79,71,61,30.36,30.27,30.16,10,6,1,14,7,20,0.00,7,Snow,293
2013-1-23,16,8,0,12,7,-4,88,78,57,30.34,30.17,30.05,10,6,1,15,5,20,0.00,8,Snow,251
2013-1-24,19,13,7,10,4,-2,86,68,42,30.63,30.47,30.09,10,10,3,13,8,22,0.03,1,Snow,3
2013-1-25,21,17,15,18,14,7,93,82,70,30.51,30.13,30.01,10,5,0,12,5,,0.00,8,Fog-Snow,188
2013-1-26,26,20,14,19,14,11,89,75,55,30.49,30.31,30.09,10,8,4,12,5,18,0.03,6,Snow,319
2013-1-27,30,20,10,27,18,8,92,81,65,30.51,30.37,30.12,10,7,2,14,4,,0.00,6,Rain-Snow,162
2013-1-28,46,38,30,46,38,28,100,96,87,30.15,30.00,29.89,5,2,0,14,8,21,0.19,8,Fog-Rain,240
2013-1-29,57,47,37,54,49,36,100,95,86,30.02,29.77,29.47,10,3,0,18,10,26,0.84,8,Fog-Rain,203
2013-1-30,62,47,30,56,44,22,100,87,69,29.42,29.28,29.17,10,8,1,28,15,41,0.55,7,Rain,246
2013-1-31,30,23,16,25,15,8,93,73,55,29.95,29.64,29.35,10,6,1,25,18,37,0.00,8,Snow,284